Teterboro, NJ

2:59 AM EDT on October 17, 2017 (GMT -0400)
Teterboro

Weather History for KTEB - November, 2013

Change the Weather History Date:

Wednesday, November 13, 2013

  Actual Average Record
Temperature  
Mean Temperature 35 °F -  
Max Temperature 42 °F 51 °F 64 °F (2005)
Min Temperature 28 °F 35 °F 26 °F (1996)
Degree Days  
Heating Degree Days 30    
Moisture  
Dew Point 13 °F    
Average Humidity 44    
Maximum Humidity 56    
Minimum Humidity 25    
Precipitation  
Precipitation 0.00 in - - ()
Sea Level Pressure  
Sea Level Pressure 30.33 in    
Wind  
Wind Speed 8 mph (WNW)    
Max Wind Speed 15 mph    
Max Gust Speed 25 mph    
Visibility 10 miles    
Events      
Averages and records for this station are not official NWS values.
T = Trace of Precipitation, MM = Missing Value Source: NWS Daily Summary

Daily Weather History Graph

Daily Weather History Graph

Search for Another Location

Airport or City:

Trip Planner

Search our weather history database for the weather conditions in past years. The results will help you decide how hot, cold, wet, or windy it might be!

Date:

Astronomy

Nov. 13, 2013 Rise Set
Actual Time 6:41 AM EST 4:39 PM EST
Civil Twilight 6:11 AM EST 5:08 PM EST
Nautical Twilight 5:38 AM EST 5:41 PM EST
Astronomical Twilight 5:06 AM EST 6:14 PM EST
Moon 2:26 PM EST (11/13) 2:30 AM EST (11/13)
Length of Visible Light 10h 56m
Length of Day
9h 58m
Waxing Gibbous, 84% of the Moon is Illuminated
Nov 13
Waxing Gibbous
Nov 17
Full
Nov 25
Last Quarter
Dec 2
New
Dec 9
First Quarter

Hourly Weather History & Observations

Time (EST) Temp. Windchill Dew Point Humidity Pressure Visibility Wind Dir Wind Speed Gust Speed Precip Events Conditions
12:51 AM 32.0 °F 24.2 °F 16.0 °F 52% 30.29 in 10.0 mi NW 9.2 mph - N/A   Clear
1:51 AM 30.0 °F 24.1 °F 16.0 °F 56% 30.30 in 10.0 mi NW 5.8 mph - N/A   Clear
2:51 AM 30.9 °F 25.2 °F 16.0 °F 54% 30.30 in 10.0 mi NW 5.8 mph - N/A   Partly Cloudy
3:51 AM 30.0 °F 23.2 °F 16.0 °F 56% 30.30 in 10.0 mi NW 6.9 mph - N/A   Partly Cloudy
4:51 AM 28.9 °F 21.9 °F 15.1 °F 56% 30.31 in 10.0 mi NW 6.9 mph - N/A   Clear
5:51 AM 30.0 °F 21.1 °F 12.9 °F 49% 30.32 in 10.0 mi NNW 10.4 mph 18.4 mph N/A   Clear
6:51 AM 28.0 °F 20.0 °F 12.9 °F 53% 30.34 in 10.0 mi NW 8.1 mph - N/A   Clear
7:51 AM 30.9 °F 25.2 °F 14.0 °F 50% 30.37 in 10.0 mi NNW 5.8 mph - N/A   Clear
8:51 AM 33.1 °F 23.9 °F 12.9 °F 43% 30.38 in 10.0 mi NNW 12.7 mph 25.3 mph N/A   Clear
9:51 AM 35.1 °F 25.5 °F 12.9 °F 40% 30.38 in 10.0 mi NW 15.0 mph 19.6 mph N/A   Clear
10:51 AM 37.0 °F 29.3 °F 12.0 °F 36% 30.36 in 10.0 mi NW 11.5 mph - N/A   Clear
11:51 AM 39.0 °F 30.6 °F 10.9 °F 32% 30.34 in 10.0 mi NW 15.0 mph 20.7 mph N/A   Clear
12:51 PM 39.9 °F 31.8 °F 10.0 °F 29% 30.33 in 10.0 mi NW 15.0 mph 23.0 mph N/A   Clear
1:51 PM 41.0 °F 34.7 °F 7.0 °F 25% 30.32 in 10.0 mi NNW 10.4 mph 20.7 mph N/A   Clear
2:51 PM 42.1 °F 36.1 °F 8.1 °F 25% 30.31 in 10.0 mi NNW 10.4 mph - N/A   Clear
3:51 PM 39.9 °F 32.1 °F 9.0 °F 28% 30.31 in 10.0 mi NW 13.8 mph 21.9 mph N/A   Clear
4:51 PM 37.9 °F 33.5 °F 10.9 °F 33% 30.32 in 10.0 mi West 5.8 mph - N/A   Clear
5:51 PM 37.0 °F 32.4 °F 12.0 °F 36% 30.34 in 10.0 mi West 5.8 mph - N/A   Clear
6:51 PM 36.0 °F 33.3 °F 12.9 °F 39% 30.34 in 10.0 mi WSW 3.5 mph - N/A   Clear
7:51 PM 33.1 °F 28.7 °F 14.0 °F 46% 30.34 in 10.0 mi SSW 4.6 mph - N/A   Clear
8:51 PM 33.1 °F 27.7 °F 16.0 °F 50% 30.33 in 10.0 mi SW 5.8 mph - N/A   Clear
9:51 PM 32.0 °F 27.5 °F 16.0 °F 52% 30.32 in 10.0 mi South 4.6 mph - N/A   Clear
10:51 PM 32.0 °F 27.5 °F 17.1 °F 54% 30.30 in 10.0 mi SSW 4.6 mph - N/A   Clear
11:51 PM 32.0 °F 26.4 °F 18.0 °F 56% 30.28 in 10.0 mi South 5.8 mph - N/A   Clear